SCP
3 2 2 2 1 1 1 1 1 1 1 1 1 1 0 0 1 0 1 1 1 1 1 1 1 1 1 1 1 1 1 2 2 2 1 1 1 1 1 1 1 1 1 1 1 1 1 1 1
2 2 2 2 1 1 1 1 1 1 1 1 1 1 0 0 0 1 1 1 1 0 1 1 1 1 1 1 1 1 1 1 1 1 1 1 1 1 1 1 1 1 1 1 1 1 1 1 1
1 1 2 2 1 1 1 1 1 1 1 1 1 1 0 0 0 1 1 1 0 0 1 1 1 1 1 1 1 1 1 1 1 1 1 1 1 1 1 1 1 1 1 1 1 1 1 1 1
1 2 2 1 1 1 1 1 1 1 1 1 1 1 1 0 1 1 1 1 1 0 1 1 1 1 1 1 1 1 1 1 1 1 1 0 1 1 1 1 1 1 1 1 1 1 1 1 1
2 2 2 1 1 1 1 1 1 1 1 1 1 1 1 1 1 1 1 1 1 1 0 0 1 1 1 1 1 1 1 1 0 0 0 0 1 1 1 0 0 0 0 0 0 0 0 0 0
3 3 2 1 1 1 1 1 1 1 1 1 1 1 1 1 1 1 1 1 1 1 0 0 0 1 1 1 1 1 1 1 1 1 1 1 1 1 0 0 0 0 0 0 0 0 0 0 0
3 3 1 1 1 1 1 1 1 1 1 1 1 1 1 1 1 1 1 1 1 0 0 0 0 0 1 1 1 1 1 1 1 1 1 1 1 0 0 0 0 0 0 0 0 0 1 0 0
3 2 2 1 1 1 1 1 1 1 1 1 1 1 1 1 1 1 1 1 1 0 0 0 0 0 0 0 1 1 1 1 0 0 1 1 0 0 0 0 0 0 0 0 0 1 1 1 1
2 2 1 1 1 1 1 1 1 1 1 1 1 1 1 1 1 1 1 0 0 0 0 0 0 0 0 0 0 1 0 0 0 0 0 0 0 0 0 0 0 0 0 0 0 0 0 1 1
2 2 1 1 1 1 1 1 1 1 1 1 1 1 1 1 1 1 0 0 0 0 0 0 0 0 0 0 0 0 0 0 0 0 0 0 0 0 0 0 0 0 0 0 0 0 0 0 0
1 1 1 1 1 1 0 0 1 1 1 1 1 1 0 0 1 0 0 0 0 0 0 0 0 0 0 0 0 0 0 0 0 0 0 0 0 0 0 0 0 0 0 0 0 0 0 0 0
1 1 1 1 1 1 0 0 0 1 1 1 1 0 0 0 0 0 0 0 0 0 0 1 1 0 0 0 0 0 0 0 0 0 0 0 0 0 0 0 0 0 0 0 0 0 0 0 0
1 1 1 1 1 0 0 0 0 1 1 1 1 0 0 0 0 0 0 0 0 0 0 0 1 0 0 0 0 0 0 0 0 0 0 0 0 0 0 0 0 0 0 0 0 0 0 0 0
1 1 1 0 0 0 0 0 0 1 1 1 1 1 0 0 0 0 0 0 0 0 0 0 0 1 1 0 0 0 0 0 0 0 0 0 0 0 0 0 0 0 0 0 0 0 0 0 0
1 1 1 0 0 0 0 0 0 1 1 0 1 1 1 0 0 0 0 0 0 0 0 0 0 1 1 1 0 0 0 0 0 0 0 0 0 0 0 0 0 0 0 0 0 0 0 0 0
0 1 1 0 0 1 1 1 1 1 1 0 1 1 1 1 0 0 0 0 0 0 0 0 0 0 1 1 1 0 0 0 0 0 0 0 0 0 0 0 0 0 0 0 0 0 0 0 0
0 0 0 0 0 1 1 1 1 1 1 1 1 1 1 1 0 0 0 0 1 1 1 0 0 0 0 0 1 1 0 0 0 0 0 0 0 0 0 0 0 0 0 0 0 0 0 0 0
0 0 0 0 0 0 1 1 1 1 1 1 1 1 1 1 1 1 0 1 1 1 1 1 1 0 0 0 0 0 0 0 0 0 0 0 0 0 0 0 0 0 0 0 0 0 0 0 0
0 0 0 0 0 0 0 1 1 1 1 1 1 1 1 1 1 1 1 1 1 1 1 1 1 1 0 0 0 0 0 0 0 0 0 0 0 0 0 0 1 1 0 0 0 0 0 0 0
0 0 0 0 0 0 0 0 0 1 1 1 1 1 1 1 1 1 1 1 1 1 1 1 1 1 1 1 0 0 0 0 0 0 0 0 0 0 0 0 0 0 0 0 0 0 0 0 0
0 0 0 0 0 0 0 0 0 0 1 1 1 1 1 1 1 1 1 1 0 1 1 1 1 1 1 1 0 0 0 0 0 0 0 0 0 0 0 0 0 0 0 0 0 0 0 0 0
0 0 0 0 0 0 0 0 0 0 1 1 1 1 1 1 1 1 1 1 1 1 0 0 1 1 1 1 1 0 0 0 0 0 0 0 0 0 0 0 0 0 0 0 0 0 0 0 0
0 0 0 0 0 0 0 0 0 0 0 0 1 1 1 1 1 1 1 1 1 1 1 0 0 1 1 1 1 0 0 0 0 0 0 0 0 0 0 0 0 0 0 0 0 0 0 0 0
0 0 0 0 0 0 0 0 0 0 0 0 0 1 1 1 1 1 1 1 1 1 1 1 1 1 1 1 1 1 0 0 0 0 0 0 0 0 0 0 0 0 0 0 0 0 0 0 0
0 0 0 0 0 0 0 0 0 0 0 0 0 0 1 1 1 1 2 1 2 2 2 1 1 1 1 1 1 1 0 0 0 0 0 0 0 0 0 0 0 0 0 0 0 0 0 0 0
0 0 0 0 0 0 0 0 0 0 0 0 0 0 1 1 1 1 2 2 2 2 2 2 1 1 1 1 1 1 0 0 0 0 0 0 0 0 0 0 0 0 0 0 0 0 0 0 0
0 0 0 0 0 0 0 0 0 0 0 0 0 1 1 1 1 1 2 2 2 2 2 2 2 1 1 1 1 1 1 0 0 0 0 0 0 0 0 0 0 0 0 0 0 0 0 0 0
0 0 0 0 0 0 0 0 0 0 0 0 0 1 1 1 1 1 2 2 2 1 2 2 2 1 1 1 1 1 1 1 0 0 0 0 0 0 0 0 0 0 0 0 0 0 0 0 0
0 0 0 0 0 0 0 0 0 0 0 0 0 1 1 1 1 1 2 1 1 1 1 1 1 1 1 1 1 1 1 1 1 1 1 0 0 0 0 0 0 0 0 0 0 0 0 0 0
0 0 0 0 0 0 0 0 0 0 0 0 0 0 1 1 1 1 1 1 1 1 1 1 1 1 1 1 1 1 1 1 1 1 1 0 0 0 0 0 0 0 0 0 0 0 0 0 0
Wind_Speed
9 9 5 2 3 3 1 3 5 6 5 8 9 10 13 12 9 9 3 7 12 13 11 11 12 13 12 12 11 12 12 12 12 11 11 10 10 10 10 10 10 10 10 10 9 9 9 9 8
9 4 3 2 3 2 1 5 8 9 7 6 8 11 13 11 10 8 4 8 11 12 11 11 13 13 12 11 12 12 12 12 11 11 10 10 10 10 10 9 9 9 9 9 9 8 8 8 7
10 6 3 3 2 0 3 6 8 9 6 6 8 11 9 7 8 5 6 10 11 12 11 11 12 12 11 11 12 12 11 11 11 11 10 9 9 9 9 9 9 9 9 8 8 8 8 7 7
5 3 3 3 1 5 6 7 7 7 5 6 9 10 9 7 6 8 10 12 13 12 11 10 12 12 12 12 12 11 11 11 11 10 9 8 8 9 9 9 8 8 8 8 8 7 7 7 7
3 3 4 1 3 5 6 7 6 5 5 8 12 11 9 8 10 11 10 12 13 12 11 10 11 11 12 12 11 11 10 10 10 10 9 8 8 8 8 8 8 8 8 8 8 7 6 6 6
2 3 3 2 5 6 5 5 6 7 8 10 12 11 7 7 9 9 10 10 11 12 11 10 11 12 12 12 11 10 10 10 9 9 8 7 7 7 7 7 7 7 7 7 7 6 6 5 4
3 3 2 2 5 5 4 4 5 6 7 7 8 10 8 8 7 8 9 10 10 11 10 9 8 9 11 12 11 10 10 9 8 7 6 5 6 7 7 7 7 7 7 6 5 5 4 4 2
3 3 2 2 5 5 5 5 6 6 6 7 8 8 9 9 8 9 9 9 9 8 8 8 8 8 8 8 10 10 9 8 7 6 5 5 5 6 7 7 6 6 5 5 4 3 3 2 1
3 2 2 2 4 5 6 6 7 6 8 9 11 11 13 13 11 10 8 8 7 7 6 6 7 6 7 7 9 9 8 7 6 5 6 5 3 4 4 7 7 5 4 3 3 2 2 2 2
1 1 2 3 5 6 6 6 6 6 8 10 13 14 15 12 11 10 8 8 7 5 5 5 5 5 5 5 6 4 5 4 4 3 3 3 2 3 5 7 7 6 4 3 3 4 4 4 2
1 0 3 5 6 7 6 6 6 7 6 8 12 14 12 11 10 9 8 7 6 6 4 4 4 5 5 3 3 2 2 2 2 2 3 2 2 2 4 3 3 3 4 3 3 3 3 2 1
2 3 3 5 6 5 5 6 7 7 7 10 12 12 11 10 9 8 8 7 6 6 4 3 4 4 5 4 3 2 2 1 1 1 3 2 1 2 2 2 2 2 1 1 1 1 1 1 1
3 3 4 5 5 5 6 8 8 8 11 11 12 11 10 9 8 7 8 7 7 5 4 3 3 4 5 4 2 3 2 2 2 1 2 3 2 2 1 2 1 1 1 1 0 1 2 3 3
4 5 4 5 6 5 6 6 7 9 11 11 11 9 8 8 8 7 7 7 7 5 5 3 3 4 4 3 2 3 2 2 2 2 2 3 2 2 2 2 2 1 1 1 1 2 2 2 2
4 5 4 4 5 5 5 5 7 9 11 11 10 9 8 7 7 7 6 6 7 6 6 4 4 4 4 3 3 3 2 3 2 1 2 3 2 2 3 2 2 1 1 2 2 3 2 2 2
5 5 4 5 6 5 3 4 7 9 10 9 9 8 7 6 7 6 6 6 7 6 6 4 4 4 4 4 3 2 3 3 2 2 2 3 3 4 3 2 2 2 3 2 2 3 2 2 2
5 5 6 6 7 6 5 4 6 8 8 8 8 9 8 7 7 7 6 6 6 7 7 5 4 5 4 3 3 3 3 2 2 3 3 3 3 3 3 2 2 3 3 3 3 3 2 2 2
4 4 5 6 6 6 6 5 7 7 8 8 8 8 9 9 8 7 6 6 6 7 7 6 5 5 4 2 2 2 3 3 3 3 3 4 3 4 3 1 3 4 3 3 3 3 2 2 1
3 3 3 4 5 6 6 6 7 8 8 8 8 8 9 9 9 7 6 6 6 6 7 7 6 5 4 2 2 2 2 2 2 2 4 3 4 4 3 3 4 4 3 2 3 2 2 2 2
4 3 3 4 6 5 5 6 6 8 8 7 9 9 8 9 9 8 7 6 6 6 6 6 6 5 5 3 2 2 2 2 2 2 3 2 3 3 3 3 3 3 2 4 3 3 2 1 2
5 4 4 5 5 5 5 6 8 9 8 8 7 8 9 9 11 10 9 7 6 6 6 6 6 6 6 5 2 2 2 2 2 2 2 3 3 4 3 3 2 2 2 2 2 2 2 1 2
4 5 6 6 5 5 7 4 8 11 10 9 8 7 8 8 9 9 9 9 7 6 5 6 6 6 5 5 3 3 3 2 2 2 2 2 3 4 3 3 3 3 3 3 2 3 2 2 1
2 3 5 6 6 5 8 6 5 10 11 11 10 9 8 8 9 9 9 9 8 7 5 5 5 5 5 5 4 3 3 2 2 2 3 3 3 3 3 3 3 3 3 3 4 4 4 2 2
3 4 6 6 5 6 9 7 3 6 11 12 11 10 9 9 8 8 8 8 8 6 5 5 5 4 4 5 4 4 4 4 4 3 2 2 2 2 2 2 2 3 2 3 3 3 3 3 3
4 2 2 4 5 5 6 5 3 5 8 10 10 10 9 9 9 9 9 9 8 8 6 6 6 5 4 5 5 5 4 4 4 3 2 2 2 1 2 2 2 2 2 3 2 3 2 2 2
6 7 4 3 2 2 3 3 3 6 7 8 9 8 8 8 8 8 8 8 8 8 7 7 6 6 5 5 4 5 5 2 2 3 3 2 2 2 2 3 3 3 3 3 3 3 3 3 3
5 6 6 5 4 2 2 4 6 6 7 7 8 8 7 7 7 8 9 8 9 9 8 7 7 6 6 5 4 4 4 3 3 3 3 2 2 2 3 3 4 3 4 3 3 3 3 3 4
6 5 3 2 2 2 2 3 4 8 7 7 7 8 7 6 7 8 8 9 9 8 7 7 7 7 6 5 4 4 4 4 3 2 3 3 3 3 3 3 4 3 3 4 4 3 2 3 3
6 5 3 3 3 2 1 1 2 8 8 7 7 7 7 7 7 8 7 7 8 8 7 7 6 6 6 6 5 5 4 4 4 3 3 3 3 3 3 3 4 4 3 3 3 2 2 3 2
6 5 4 3 3 2 0 1 2 7 7 7 7 6 5 6 7 7 7 7 7 8 8 8 7 6 6 5 5 5 4 4 4 3 4 3 3 2 3 3 4 4 3 3 3 2 2 2 2
Wind_Direction
268 246 234 235 246 238 240 69 76 71 68 56 56 67 68 52 58 93 127 107 109 112 112 104 98 97 95 94 95 98 99 96 93 90 85 85 85 83 82 80 78 78 78 76 76 77 77 75 73
278 262 252 236 255 251 95 86 76 70 81 82 70 71 72 68 74 95 105 98 104 107 107 103 102 99 99 99 99 99 99 98 95 91 86 85 84 83 80 80 78 76 75 74 74 75 75 73 73
266 265 257 244 263 27 82 83 87 81 73 71 75 62 59 69 82 92 108 105 101 101 101 105 105 103 103 103 101 99 99 99 95 93 89 85 84 84 81 79 78 76 74 72 71 72 73 73 74
258 246 241 245 8 51 84 90 94 95 81 78 87 75 70 62 89 111 111 105 102 102 102 107 106 106 106 105 105 102 98 98 95 93 91 87 84 84 84 79 77 76 74 73 72 73 72 72 75
243 254 246 218 83 69 71 79 89 93 92 84 86 90 81 74 96 106 106 104 104 105 107 110 107 112 111 110 108 103 101 98 95 93 90 90 88 89 86 84 80 77 75 73 70 72 72 74 70
260 255 253 159 111 90 82 77 81 86 88 88 97 100 91 95 96 103 104 103 106 108 109 111 111 119 120 114 110 107 105 101 98 97 98 98 97 98 95 91 87 83 80 76 72 73 76 73 66
286 281 256 133 116 106 95 87 82 84 84 82 97 103 112 106 102 104 103 103 103 108 114 120 125 118 119 119 115 113 112 111 109 108 113 119 118 114 109 101 94 90 86 83 79 80 81 79 67
295 293 270 121 117 106 97 93 82 79 82 76 84 111 126 126 116 104 101 101 105 110 117 125 127 129 128 121 122 123 125 130 135 144 159 159 149 139 129 119 107 102 99 98 98 102 110 119 131
281 278 309 88 113 110 114 108 88 81 81 69 67 93 119 128 120 109 107 104 102 105 110 120 124 128 127 132 135 142 144 153 162 179 192 191 187 157 136 115 124 124 126 128 143 159 176 187 220
241 315 25 61 94 112 118 114 117 109 96 92 89 99 119 130 128 124 121 117 113 112 115 114 122 121 121 127 138 148 147 158 179 175 176 193 138 110 116 129 141 152 162 168 197 214 220 223 213
181 101 77 90 91 112 117 114 109 107 99 108 117 124 132 136 133 130 126 123 122 116 106 120 126 133 128 117 129 125 130 153 161 141 127 105 97 125 127 148 156 176 185 195 196 227 234 223 187
115 95 92 94 93 106 115 111 98 91 101 111 120 130 135 137 134 133 126 122 117 106 104 108 105 112 117 113 123 127 119 121 99 93 110 98 84 78 100 124 151 167 177 154 189 224 253 21 68
143 133 126 111 112 111 110 111 110 102 109 114 123 129 134 134 130 125 122 123 117 118 114 96 85 85 95 95 111 105 87 86 93 36 83 92 81 75 83 102 82 82 109 121 29 43 39 45 36
137 133 130 131 133 136 123 121 121 120 125 127 130 134 136 134 135 133 134 133 130 135 122 104 95 87 98 101 90 92 101 93 79 38 59 81 83 84 68 72 69 48 57 60 56 73 58 57 47
141 147 150 155 156 149 136 135 135 137 139 137 139 140 137 140 140 142 142 141 139 134 121 117 107 89 79 72 73 89 86 85 81 38 39 70 72 63 65 61 59 46 57 58 46 53 58 77 68
181 181 172 175 179 175 179 162 145 150 148 142 145 143 145 152 155 147 148 150 140 133 127 124 118 100 79 67 60 73 77 75 86 64 35 50 67 69 62 46 29 50 53 52 60 53 45 55 58
206 198 179 171 189 176 182 166 154 160 158 154 155 153 157 163 161 153 159 147 139 137 135 138 123 109 94 87 79 63 74 64 64 62 37 26 47 63 73 44 17 54 49 43 57 58 52 58 60
200 200 187 173 177 182 180 169 164 175 169 167 167 165 166 168 165 160 159 147 146 146 143 138 123 119 110 95 90 73 63 59 60 62 47 33 35 54 67 60 53 51 53 43 55 66 54 49 50
237 210 192 171 171 182 182 182 175 176 177 177 175 179 174 170 167 160 160 152 153 152 143 138 139 133 124 110 100 93 81 71 59 60 56 39 39 39 51 53 60 54 53 48 65 59 54 41 58
243 219 201 175 180 188 183 198 194 188 187 183 180 177 171 167 163 161 160 157 158 152 144 145 144 142 132 127 129 127 118 101 87 59 52 37 47 47 53 71 77 84 69 46 49 54 41 29 60
221 224 209 190 188 205 201 213 209 193 187 189 182 176 176 174 166 163 167 161 158 157 159 155 155 146 140 141 122 108 84 77 89 82 53 29 45 44 32 54 72 81 92 80 56 70 66 20 16
225 217 215 205 204 208 209 222 210 194 185 186 182 178 175 169 164 164 167 162 166 161 156 155 157 147 141 137 132 138 131 124 116 114 109 75 57 52 34 44 56 65 73 74 46 57 58 58 19
251 243 237 228 231 240 221 230 205 183 183 187 185 179 175 165 162 165 165 161 162 158 155 152 150 146 143 139 138 139 119 120 111 108 103 96 77 65 51 43 52 61 70 71 62 50 36 46 45
252 248 245 236 238 244 228 216 196 188 183 182 180 176 174 170 165 166 161 154 152 148 149 142 138 137 136 140 149 144 133 125 114 103 101 99 89 65 67 70 66 64 70 69 67 72 61 48 43
220 228 239 219 214 231 216 198 169 153 164 167 168 172 172 171 170 167 158 155 150 149 151 146 144 144 146 156 160 148 142 140 133 129 117 106 100 77 62 60 66 64 72 75 66 66 74 71 67
218 215 234 250 231 225 199 165 127 129 137 149 153 157 160 169 171 164 156 154 152 154 157 153 153 155 162 170 165 151 141 136 136 135 126 117 116 121 106 77 68 59 59 67 61 61 52 55 63
227 235 259 289 292 254 175 120 122 122 132 148 149 150 161 168 162 157 156 158 156 157 159 162 159 159 164 170 164 152 146 141 138 134 126 122 116 115 107 99 89 70 63 62 66 66 56 54 40
246 252 257 259 276 244 166 171 171 155 154 155 152 157 165 164 160 159 160 158 158 158 162 161 160 162 160 162 163 150 143 139 129 130 133 122 115 101 96 100 102 92 78 70 60 64 57 80 67
221 230 244 258 263 280 182 91 150 151 150 158 157 154 162 163 161 156 152 153 152 154 158 157 162 159 160 162 155 148 147 140 131 128 126 122 116 120 122 120 111 103 94 91 81 73 48 66 73
240 237 230 247 265 261 324 45 135 135 142 148 150 152 156 151 149 145 147 149 152 159 164 165 165 160 158 155 146 149 153 145 141 143 137 134 130 125 124 119 112 108 102 102 108 103 81 70 64